DW4321 Weather Reports


time (UTC)temp
C
wind
direction
speed
KPH
gust
KPH
rain 1hr
cm
rain 24hr
cm
rain mn
cm
humidity
%
barometer
mb
20260505111541 15 0 1.6 11.3 0.13 0.13 0.13 82 1008.9
20260505101551 15 178 1.6 11.3 0.00 0.00 0.00 67 1008.6
20260505100043 15 157 1.6 19.3 0.00 0.00 0.00 68 1008.3
20260505094542 15 193 1.6 8.0 0.00 0.00 0.00 68 1008.2
20260505093057 14 248 0.0 6.4 0.00 0.00 0.00 69 1008.3
20260505091557 15 0 1.6 9.7 0.00 0.00 0.00 69 1008.3
20260505090045 15 0 0.0 3.2 0.00 0.00 0.00 68 1008.2
20260505084543 15 0 0.0 9.7 0.00 0.00 0.00 67 1007.8
20260505083051 15 0 1.6 9.7 0.00 0.00 0.00 67 1007.8
20260505081545 15 0 0.0 14.5 0.00 0.00 0.00 68 1007.8
20260505080046 15 0 1.6 11.3 0.00 0.00 0.00 68 1008.0
20260505074543 15 0 0.0 12.9 0.00 0.00 0.00 67 1008.1
20260505073051 15 0 0.0 9.7 0.00 0.00 0.00 68 1007.7
20260505071553 15 267 0.0 9.7 0.00 0.00 0.00 68 1007.4
20260505070056 15 0 0.0 11.3 0.00 0.00 0.00 69 1007.4
20260505064548 15 0 0.0 6.4 0.00 0.00 0.00 69 1007.5
20260505063045 15 107 0.0 3.2 0.00 0.00 0.00 69 1007.7
20260505061546 15 0 0.0 12.9 0.00 0.00 0.00 69 1007.7
20260505060051 15 0 0.0 4.8 0.00 0.00 0.00 68 1007.7
20260505054551 15 0 1.6 8.0 0.00 0.00 0.00 68 1007.8
20260505053047 15 182 0.0 4.8 0.00 0.00 0.00 67 1007.9
20260505051558 16 183 0.0 4.8 0.00 0.00 0.00 65 1008.1
20260505041545 15 0 0.0 9.7 0.00 0.00 0.00 67 1008.1
20260505040045 15 0 0.0 4.8 0.00 0.00 0.00 68 1008.2
20260505034542 15 0 0.0 3.2 0.00 0.00 0.00 69 1008.2
20260505033043 15 0 0.0 1.6 0.00 0.00 0.00 70 1007.8
20260505031553 15 0 0.0 1.6 0.00 0.00 0.00 71 1007.9
20260505030045 15 0 0.0 1.6 0.00 0.00 0.00 72 1007.9
20260505024552 15 0 0.0 3.2 0.00 0.00 0.00 73 1007.9
20260505023050 15 0 0.0 1.6 0.00 0.00 0.00 72 1007.9
20260505021542 16 0 0.0 1.6 0.00 0.00 0.00 69 1007.9
20260505020041 16 0 1.6 8.0 0.00 0.00 0.00 67 1007.9
20260505014548 17 0 0.0 4.8 0.00 0.00 0.00 64 1008.1
20260505013101 18 190 0.0 30.6 0.00 0.00 0.00 62 1007.8
20260505011544 18 285 0.0 12.9 0.00 0.00 0.00 51 1007.9
20260505010053 18 0 0.0 3.2 0.00 0.00 0.00 50 1007.4
20260505004543 19 0 0.0 4.8 0.00 0.00 0.00 49 1007.2
20260505003047 20 0 0.0 4.8 0.00 0.00 0.00 49 1007.3
20260505001548 20 0 0.0 11.3 0.00 0.00 0.00 48 1007.1
20260505000057 20 215 0.0 9.7 0.00 0.00 0.00 46 1007.0
20260504234547 21 218 3.2 11.3 0.00 0.00 0.00 45 1006.8
20260504233046 21 264 1.6 12.9 0.00 0.00 0.00 45 1006.7
20260504231543 21 211 1.6 14.5 0.00 0.00 0.00 45 1006.6
20260504230051 22 153 3.2 19.3 0.00 0.00 0.00 44 1006.6
20260504224546 22 178 3.2 17.7 0.00 0.00 0.00 43 1006.4
20260504223052 22 169 3.2 24.1 0.00 0.00 0.00 43 1006.4
20260504221543 22 274 4.8 22.5 0.00 0.00 0.00 43 1006.4
20260504220048 22 211 4.8 25.7 0.00 0.00 0.00 42 1006.3
20260504214547 22 207 6.4 30.6 0.00 0.00 0.00 40 1006.3
20260504213051 23 225 3.2 19.3 0.00 0.00 0.00 39 1006.3
20260504211551 23 174 3.2 25.7 0.00 0.00 0.00 37 1006.2
20260504210044 23 0 3.2 24.1 0.00 0.00 0.00 36 1006.4
20260504204544 23 178 6.4 27.4 0.00 0.00 0.00 33 1006.4
20260504203046 23 251 6.4 22.5 0.00 0.00 0.00 35 1006.6
20260504201557 23 269 6.4 25.7 0.00 0.00 0.00 35 1006.7
20260504200048 23 186 6.4 25.7 0.00 0.00 0.00 34 1006.9
20260504194550 23 171 1.6 16.1 0.00 0.00 0.00 34 1007.3
20260504193045 23 213 8.0 33.8 0.00 0.00 0.00 33 1007.5
20260504191554 23 164 6.4 19.3 0.00 0.00 0.00 35 1007.5
20260504190047 22 259 11.3 30.6 0.00 0.00 0.00 36 1007.9
20260504184553 22 263 4.8 22.5 0.00 0.00 0.00 38 1007.9
20260504183045 22 153 4.8 29.0 0.00 0.00 0.00 38 1008.4
20260504181544 22 261 9.7 24.1 0.00 0.00 0.00 37 1008.5
20260504180047 22 208 4.8 22.5 0.00 0.00 0.00 39 1008.5
20260504174545 22 252 6.4 19.3 0.00 0.00 0.00 39 1008.8
20260504173039 21 201 8.0 29.0 0.00 0.00 0.00 41 1009.1
20260504171547 21 108 4.8 25.7 0.00 0.00 0.00 41 1009.3